Regional Weather Roundup
Issued by NWS Kansas City/Pleasant Hill, MO

Home | Current Version | Previous Version | Graphics & Text | Print | Product List | Glossary Off
Versions: 1 2 3 4 5 6 7 8 9 10 11 12 13 14 15 16 17 18 19 20 21 22 23 24 25 26 27 28 29 30 31 32 33 34 35 36 37 38 39 40 41 42 43 44 45 46 47 48 49 50

000
ASUS43 KEAX 010810
RWREAX

WEATHER ROUNDUP FOR EASTERN KANSAS AND NORTHWEST MISSOURI
NATIONAL WEATHER SERVICE KANSAS CITY/PLEASANT HILL MO
200 AM CST SUN MAR 01 2015

KSZ040-057-103>105-MOZ028-029-037-043-010900-
...KANSAS CITY METROPOLITAN AREA...

CITY           SKY/WX    TMP DP  RH WIND       PRES   REMARKS
K.C. INTL      CLOUDY    22  20  92 CALM      30.35S
K.C. DOWNTOWN  CLOUDY    25  21  85 CALM      30.37F
LEES SUMMIT    LGT SNOW  22  20  92 CALM      30.35F FOG
OLATHE - IXD   CLOUDY    22  19  89 CALM      30.35F
OLATHE - OJC   CLOUDY    22  20  92 CALM      30.33F
LAWRENCE       CLOUDY    22  19  89 CALM      30.37S

$$

MOZ001>008-011>017-020>025-030>033-038>040-044>046-053-054-010900-
...NORTHERN AND CENTRAL MISSOURI...

CITY           SKY/WX    TMP DP  RH WIND       PRES   REMARKS
ST. JOSEPH     CLOUDY    23  19  85 CALM      30.38F
MOSBY          CLOUDY    23  23 100 CALM      30.38S
WARRENSBURG    LGT SNOW  23  21  93 CALM      30.36F
WHITEMAN AFB   LGT SNOW  23  21  92 NE1       30.34S FOG
CLINTON        CLOUDY    27  25  93 CALM      30.36F FOG
SEDALIA        LGT SNOW  24  21  88 N3        30.37R FOG
WARSAW         NOT AVBL
MARSHALL       LGT SNOW  25  25 100 CALM      30.39
CHILLICOTHE      N/A     23  19  85 CALM      30.39S
MOBERLY        LGT SNOW  23  19  86 CALM      30.38R
KIRKSVILLE     LGT SNOW  20  19  96 CALM      30.38R FOG

$$

MOZ041-047>049-056>058-063>065-088>090-097-010900-
...EASTERN AND SOUTHERN MISSOURI...

CITY           SKY/WX    TMP DP  RH WIND       PRES   REMARKS
ST. LOUIS INTL LGT SNOW  27  21  80 CALM      30.39S FOG
SPIRIT OF STL  LGT SNOW  26  23  88 CALM      30.37F FOG
COLUMBIA       LGT SNOW  24  22  91 E5        30.35S FOG     WCI  18
JEFFERSON CITY CLOUDY    25  22  88 CALM      30.38S FOG
MEXICO         CLOUDY   N/A N/A N/A CALM      30.36F HAZE
HANNIBAL       LGT SNOW  23  19  86 CALM      30.38S VSB 1
ROLLA          CLOUDY    24  22  91 CALM      30.32S
LEBANON        CLOUDY    27  25  93 CALM      30.32S
OSAGE BEACH    CLOUDY    27  23  86 CALM      30.34F
SPRINGFIELD    CLOUDY    27  25  92 S3        30.32R
BRANSON        LGT RAIN  28  27  93 CALM      30.32S
NEVADA         CLOUDY    23  23 100 CALM      30.37S FOG
JOPLIN         CLOUDY    27  25  92 CALM      30.34S FOG
WEST PLAINS    FRZ RAIN  28  26  92 SE6       30.32F FOG     WCI  22

$$

IAZ060-094-KSZ022-034>040-054-083-096-NEZ052-066-093-010900-
...KANSAS...SOUTHEAST NEBRASKA AND IOWA...

CITY           SKY/WX    TMP DP  RH WIND       PRES   REMARKS
TOPEKA         CLOUDY    23  18  81 CALM      30.37R
MANHATTAN      PTCLDY    20  17  88 CALM      30.36S
EMPORIA        CLOUDY    21  19  92 CALM      30.34R
CHANUTE        CLOUDY    23  22  96 MISG      30.35S FOG
WICHITA        FOG       22  21  96 CALM      30.33S VSB 1
OMAHA          CLOUDY    23  15  71 SW10      30.36S WCI  12
LINCOLN        CLOUDY    21  14  74 W8        30.35S WCI  11
FALLS CITY     CLOUDY    19  16  88 CALM      30.36F
LAMONI         CLOUDY    19  17  92 CALM      30.35S
DES MOINES     FLURRIES  20  16  84 S7        30.37S WCI  11

$$



USA.gov is the U.S. government's official web portal to all federal, state and local government web resources and services.